星链-30903 (STARLINK-30903 )

导读

STARLINK-30903是美国SpaceX公司星链星座中的低轨通信卫星,于2023年11月18日发射。星链星座旨在为全球提供宽带互联网服务,该卫星采用平板设计,配备太阳电池阵与氪工质霍尔推进器,支持Ku/Ka波段通信,具备自主避撞能力,设计寿命5至7年,退役后将主动离轨并在大气层中烧毁。

基本信息
目录编号:
58355
目录名称:
STARLINK-30903
国际标识:
2023-177E
轨道中心:
EARTH
卫星名称:
星链-30903
卫星全名:
星链-30903 (STARLINK-30903 )
卫星状态:
在轨 (已飞行940 天)
发射日期:
2023-11-18 UTC
国别 :
美国 (US)
星等 :
--
轨道信息
数据来源 国际轨道数据 AOE轨道数据
星历时间 2026-06-15T00:23:00+0800
13小时前
查看轨道信息
2026-06-15T05:00:00+0800
8小时前
查看轨道信息
半长轴 6861.197km 6861.19km
偏心率 0.0001064 0.0000051
轨道倾角 43.000° 43.002°
近地点辐角 266.822° 318.022°
升交点赤经 162.639° 161.552°
平近点角 93.251° 21.161°
近地点 482.329km 483.018km
远地点 483.791km 483.088km
周期 94.267分钟 94.267分钟
每日圈数 15.275765 15.275787
详细信息
固有亮度:
5
最大亮度:
0.3
卫星平台:
Starlink v2.0 mini
覆盖范围:
全球
运营商:
太空探索技术公司
运营商所在国:
美国
制造商(研发单位):
太空探索技术公司
制造商所在国:
美国
使用方式:
暂无
卫星简介
星链(Starlink)计划是由太空探索技术公司(SpaceX)提出的一个巨型低轨卫星互联网星座项目,计划在2019年至2024年间在太空搭建由约1.2万颗卫星组成的“星链”网络,其中1584颗将部署在地球上空550千米处的近地轨道,并从2020年开始工作。该卫星仍在工作。
2D轨道图
3D轨道图
轨道高度分析图
轨道倾角分析图
轨道综合分析图
查看轨道综合分析图